Regional Weather Roundup
Issued by NWS Charleston, SC

Current Version | Previous Version | Graphics & Text | Print | Product List | Glossary On
Versions: 1 2 3 4 5 6 7 8 9 10 11 12 13 14 15 16 17 18 19 20 21 22 23 24 25 26 27 28 29 30 31 32 33 34 35 36 37 38 39 40 41 42 43 44 45 46 47 48 49 50
000
ASUS42 KCHS 032311
RWRCHS

REGIONAL WEATHER ROUNDUP
NATIONAL WEATHER SERVICE CHARLESTON SC
600 PM EST TUE MAR 03 2015

NOTE: "FAIR" INDICATES FEW OR NO CLOUDS BELOW 12,000 FEET WITH NO
SIGNIFICANT WEATHER AND/OR OBSTRUCTIONS TO VISIBILITY.

NOT ALL STATIONS ARE QUALITY CONTROLLED BY THE NATIONAL
WEATHER SERVICE. USE DATA WITH CAUTION...ESPECIALLY
DEWPOINT OBSERVATIONS.

SCZ027-030-031-034>040-042>050-040000-
...SOUTHEAST SOUTH CAROLINA...

CITY           SKY/WX    TMP DP  RH WIND       PRES   REMARKS
N CHARLESTON   MOCLDY    62  53  72 NE5       30.16F
WATERFRONT PRK NOT AVBL
MOUNT PLEASANT NOT AVBL
PINOPOLIS      NOT AVBL
MONCKS CORNER  CLOUDY    52  46  82 N3        30.17F
SUMMERVILLE    CLOUDY    55  50  82 N7        30.17S
BEAUFORT MCAS  PTCLDY    62  57  83 E5        30.15S
BEAUFORT ARPT  FAIR      61  57  88 E5        30.14F
HILTON HEAD IS CLOUDY    55  52  88 CALM      30.16F
WALTERBORO     NOT AVBL
ALLENDALE      CLOUDY    55  54  94 CALM      30.14S FOG

...SOUTHERN MIDLANDS AND PEE DEE...

CITY           SKY/WX    TMP DP  RH WIND       PRES   REMARKS
GEORGETOWN     NOT AVBL
KINGSTREE      NOT AVBL
ORANGEBURG     CLOUDY    47  44  90 E7        30.16F FOG
BARNWELL       CLOUDY    52  52 100 NE7       30.16S FOG
AIKEN          CLOUDY    48  48 100 E7        30.18F FOG
MANNING        CLOUDY   N/A N/A N/A CALM      30.18F
COLUMBIA       CLOUDY    45  45 100 E5        30.17F FOG
SUMTER         CLOUDY    41  40  97 NE6       30.16F FOG
FLORENCE       CLOUDY    41  39  93 NE5       30.19F FOG
MYRTLE BEACH   CLOUDY    48  46  93 N7        30.20S FOG
N MYRTLE BEACH CLOUDY    49  47  93 N5        30.18R FOG

$$

GAZ063-065-086>088-099>101-113>116-118-119-134>141-150-040000-
...SOUTHEAST GEORGIA...

CITY           SKY/WX    TMP DP  RH WIND       PRES   REMARKS
SAVANNAH ARPT  PTCLDY    70  59  68 SE8       30.13S
HUNTER AAF     CLEAR     66  61  84 SE8       30.12R
FORT STEWART   CLEAR     71  63  73 E8        30.10R
STATESBORO     MOCLDY    73  65  76 SE5       30.11R
SYLVANIA       CLOUDY    66  64  90 E3        30.13S
CLAXTON        MOCLDY    73  66  78 E3        30.10F

...CSRA...CENTRAL AND FAR SOUTHEAST GEORGIA...

CITY           SKY/WX    TMP DP  RH WIND       PRES   REMARKS
THOMSON        CLOUDY    53  53 100 N3        30.18F
AUGUSTA-BUSH   CLOUDY    53  52  96 E5        30.15S
AUGUSTA-DANIEL CLOUDY    54  52  93 E7        30.15S
SWAINSBORO     NOT AVBL
VIDALIA        CLOUDY    77  64  65 S5        30.09S
EASTMAN        FAIR      78  64  61 SW3       30.10F
HAZLEHURST     FAIR      79  64  59 CALM      30.09R
ALMA           MOCLDY    76  63  64 S5        30.09S
WAYCROSS       PTCLDY    82  68  62 S5        30.09F
JESUP          FAIR      77  68  73 SE5       30.11S
BAXLEY         MOCLDY    79  64  61 S5        30.09S
BRUNSWICK      MOCLDY    70  63  78 SE6       30.14S
SAINT SIMONS   CLEAR     62  59  90 E7        30.13F

$$

SCZ027-028-034-036>038-045-046-048>050-GAZ119-141-040000-
...LAKE AND SUPPLEMENTAL COASTAL OBSERVATIONS...

STATION/POSITION TIME  TEMP    WIND        PRES    WAVE   SWELL
                       AIR SEA DIR/SP/G            HT/PER HT/PER/DIR
                 (UTC) (F)     (DEG/KT/KT) (MB)    (FT/S) (FT/S/D)
UPR LAKE MARION  NOT AVBL
WINYAH BAY       NOT AVBL
LAKE MURRAY      2200   43      50/  2/  4 1021.3F
ACE BASIN NERRS  NOT AVBL
FORT PULASKI     2200   52 50   70/  9/ 10 1021.4F
SAPELO ISLAND    2200   60      90/  6     1020.0F

$$

ANZ835-935-AMZ111-154-330-350-352-354-370-450-454-472-040000-
...C-MAN AND BUOY OBSERVATIONS...

STATION/POSITION TIME  TEMP    WIND        PRES    WAVE   SWELL
                       AIR SEA DIR/SP/G            HT/PER HT/PER/DIR
                 (UTC) (F)     (DEG/KT/KT) (MB)    (FT/S) (FT/S/D)
BUOY 41004       2250   63 68  330/  8/ 10 1020.9R   5/ 7   5/ 7
BUOY 41008       2250   57 56  100/ 10/ 12 1020.1F   3/ 8   2/100/ 8
FOLLY BEACH CMAN 2300   51      80/  6/  6 1022.0F
CAPERS NEARSHORE NOT AVBL
FRIPP NEARSHORE  2200   51     100/  8/  8 1020.6F


STATION/POSITION TIME  TEMP    WIND        PRES    WAVE   SWELL
                       AIR SEA DIR/SP/G            HT/PER HT/PER/DIR
                 (UTC) (F)     (DEG/KT/KT) (MB)    (FT/S) (FT/S/D)
5E ST. MARYS GA  2221      54                N/A     2/ 8
FRYING PAN BUOY  2250   66 61  160/ 16/ 17 1020.8F   6/ 6   3/130/ 9
BUOY 41025       NOT AVBL
CAPE LOOKOUT NC  2200   56     140/ 11/ 11 1021.9F
BUOY 41002       2250   66 72  140/ 16/ 17 1024.3F   6/ 9   5/ 70/ 9
BUOY 41010       2220   73 75  130/ 12/ 14 1021.7F
ST AUGUSTINE FL  2300   63     140/  8/  9 1021.2R


$$



USA.gov is the U.S. government's official web portal to all federal, state and local government web resources and services.